AXM491 WIOO-WMKK

Flight info

Callsign AXM491
Flight time N/A
Altitude 18000
Route OBDOS1A/15 OBDOS TPG A464 SJ G579 VJB A457 GUPTA GUPT1H
Aircraft A320/L-V/N

Departure

Time N/A
Airport Supadio International Airport (WIOO)

Arrival

Time 2026-04-30 11:33
Airport Kuala Lumpur International Airport (WMKK)
Time Latitude Longitude Altitude Speed Heading
2026-04-30 10:35 0.28252 107.45900 27623 ft 492 kts 285°
2026-04-30 10:35 0.29097 107.42602 27919 ft 491 kts 285°
2026-04-30 10:35 0.29947 107.39285 28233 ft 490 kts 285°
2026-04-30 10:36 0.30792 107.35989 28532 ft 489 kts 285°
2026-04-30 10:36 0.31643 107.32666 28845 ft 488 kts 285°
2026-04-30 10:36 0.32487 107.29352 29142 ft 487 kts 285°
2026-04-30 10:36 0.33323 107.26075 29413 ft 487 kts 285°
2026-04-30 10:37 0.34161 107.22797 29689 ft 487 kts 285°
2026-04-30 10:37 0.34998 107.19525 29980 ft 486 kts 285°
2026-04-30 10:37 0.35836 107.16254 30245 ft 487 kts 285°
2026-04-30 10:37 0.36684 107.12943 30521 ft 486 kts 285°
2026-04-30 10:38 0.37522 107.09671 30802 ft 486 kts 285°
2026-04-30 10:38 0.38357 107.06412 31081 ft 486 kts 285°
2026-04-30 10:38 0.39196 107.03131 31354 ft 486 kts 285°
2026-04-30 10:38 0.40034 106.99858 31619 ft 486 kts 284°
2026-04-30 10:39 0.40878 106.96562 31856 ft 486 kts 284°
2026-04-30 10:39 0.41704 106.93280 32092 ft 486 kts 283°
2026-04-30 10:39 0.42412 106.89973 32334 ft 487 kts 282°
2026-04-30 10:39 0.43092 106.86618 32603 ft 486 kts 281°
2026-04-30 10:40 0.43754 106.83313 32907 ft 485 kts 281°
2026-04-30 10:40 0.44412 106.80022 33244 ft 484 kts 281°
2026-04-30 10:40 0.45075 106.76707 33586 ft 482 kts 281°
2026-04-30 10:40 0.45734 106.73417 33916 ft 480 kts 281°
2026-04-30 10:41 0.46393 106.70134 34234 ft 479 kts 281°
2026-04-30 10:41 0.47052 106.66859 34543 ft 478 kts 281°
2026-04-30 10:41 0.47707 106.63607 34830 ft 477 kts 281°
2026-04-30 10:41 0.48364 106.60342 35096 ft 476 kts 281°
2026-04-30 10:42 0.49027 106.57053 35312 ft 477 kts 281°
2026-04-30 10:42 0.49677 106.53821 35466 ft 478 kts 281°
2026-04-30 10:42 0.50341 106.50521 35623 ft 478 kts 281°
2026-04-30 10:42 0.50997 106.47260 35781 ft 479 kts 281°
2026-04-30 10:43 0.51657 106.43982 35936 ft 479 kts 281°
2026-04-30 10:43 0.52311 106.40731 36096 ft 479 kts 281°
2026-04-30 10:43 0.52960 106.37510 36226 ft 479 kts 281°
2026-04-30 10:43 0.53628 106.34194 36349 ft 480 kts 281°
2026-04-30 10:44 0.54290 106.30889 36458 ft 481 kts 281°
2026-04-30 10:44 0.54938 106.27657 36551 ft 482 kts 281°
2026-04-30 10:44 0.56267 106.21032 36736 ft 483 kts 281°
2026-04-30 10:45 0.57584 106.14484 36826 ft 484 kts 281°
2026-04-30 10:45 0.58909 106.07893 36832 ft 484 kts 281°
2026-04-30 10:46 0.60231 106.01322 36834 ft 483 kts 281°
2026-04-30 10:46 0.61562 105.94701 36836 ft 483 kts 281°
2026-04-30 10:47 0.62889 105.88113 36832 ft 484 kts 281°
2026-04-30 10:47 0.64222 105.81496 36829 ft 484 kts 281°
2026-04-30 10:48 0.65554 105.74873 36842 ft 484 kts 281°
2026-04-30 10:48 0.66884 105.68269 36848 ft 484 kts 281°
2026-04-30 10:49 0.68203 105.61706 36830 ft 484 kts 281°
2026-04-30 10:49 0.69533 105.55093 36823 ft 484 kts 281°
2026-04-30 10:50 0.70859 105.48498 36824 ft 485 kts 281°
2026-04-30 10:50 0.72192 105.41873 36817 ft 485 kts 281°
2026-04-30 10:51 0.73529 105.35229 36813 ft 485 kts 281°
2026-04-30 10:51 0.74855 105.28608 36809 ft 484 kts 281°
2026-04-30 10:52 0.76177 105.22014 36812 ft 484 kts 281°
2026-04-30 10:52 0.77505 105.15398 36817 ft 485 kts 281°
2026-04-30 10:53 0.78823 105.08844 36819 ft 486 kts 281°
2026-04-30 10:53 0.80155 105.02213 36822 ft 485 kts 281°
2026-04-30 10:54 0.81480 104.95622 36819 ft 484 kts 281°
2026-04-30 10:54 0.82806 104.89031 36825 ft 485 kts 281°
2026-04-30 10:55 0.84138 104.82406 36837 ft 485 kts 281°
2026-04-30 10:55 0.85469 104.75790 36838 ft 486 kts 281°
2026-04-30 10:56 0.86794 104.69199 36847 ft 486 kts 281°
2026-04-30 10:56 0.88120 104.62603 36852 ft 485 kts 281°
2026-04-30 10:57 0.89512 104.55997 36847 ft 485 kts 284°
2026-04-30 10:57 0.91504 104.49563 36848 ft 484 kts 291°
2026-04-30 10:58 0.94221 104.43381 36846 ft 484 kts 296°
2026-04-30 10:58 0.97174 104.37333 36844 ft 484 kts 296°
2026-04-30 10:59 1.00128 104.31242 36852 ft 485 kts 296°
2026-04-30 10:59 1.03069 104.25136 36858 ft 485 kts 296°
2026-04-30 11:00 1.06014 104.19035 36847 ft 485 kts 296°
2026-04-30 11:00 1.08943 104.12967 36843 ft 484 kts 296°
2026-04-30 11:01 1.11892 104.06892 36842 ft 484 kts 296°
2026-04-30 11:01 1.14858 104.00805 36844 ft 485 kts 296°
2026-04-30 11:02 1.17797 103.94731 36848 ft 485 kts 296°
2026-04-30 11:02 1.20772 103.88666 36829 ft 484 kts 301°
2026-04-30 11:03 1.25001 103.83524 36839 ft 481 kts 317°
2026-04-30 11:04 1.32391 103.76718 36833 ft 480 kts 319°
2026-04-30 11:04 1.37328 103.72191 36828 ft 480 kts 319°
2026-04-30 11:05 1.42262 103.67648 36820 ft 480 kts 319°
2026-04-30 11:05 1.47178 103.63113 36808 ft 479 kts 319°
2026-04-30 11:06 1.52091 103.58577 36818 ft 480 kts 319°
2026-04-30 11:06 1.57021 103.54029 36836 ft 479 kts 319°
2026-04-30 11:07 1.61947 103.49482 36827 ft 479 kts 319°
2026-04-30 11:07 1.66877 103.44931 36817 ft 479 kts 319°
2026-04-30 11:08 1.71797 103.40383 36816 ft 480 kts 319°
2026-04-30 11:08 1.76764 103.35795 36817 ft 481 kts 319°
2026-04-30 11:09 1.81534 103.31014 36831 ft 483 kts 313°
2026-04-30 11:09 1.85690 103.25696 36841 ft 484 kts 305°
2026-04-30 11:10 1.89088 103.19930 36841 ft 484 kts 297°
2026-04-30 11:10 1.92055 103.13866 36838 ft 484 kts 296°
2026-04-30 11:11 1.95006 103.07789 36834 ft 484 kts 297°
2026-04-30 11:11 1.97960 103.01751 36827 ft 485 kts 297°
2026-04-30 11:12 2.00945 102.95665 36825 ft 485 kts 297°
2026-04-30 11:12 2.03932 102.89575 36826 ft 485 kts 297°
2026-04-30 11:13 2.06917 102.83469 36837 ft 486 kts 296°
2026-04-30 11:13 2.09887 102.77379 36843 ft 485 kts 296°
2026-04-30 11:14 2.12862 102.71327 36829 ft 485 kts 297°
2026-04-30 11:14 2.14247 102.68266 36682 ft 481 kts 292°
2026-04-30 11:14 2.15503 102.65136 36093 ft 478 kts 294°
2026-04-30 11:14 2.16837 102.62144 34851 ft 478 kts 295°
2026-04-30 11:15 2.18245 102.59109 33128 ft 483 kts 296°
2026-04-30 11:15 2.19664 102.56050 31347 ft 490 kts 295°
2026-04-30 11:15 2.21084 102.52960 29501 ft 497 kts 295°
2026-04-30 11:15 2.22502 102.49846 27593 ft 501 kts 295°
2026-04-30 11:16 2.23950 102.46643 25966 ft 495 kts 295°
2026-04-30 11:16 2.25334 102.43567 25160 ft 473 kts 295°
2026-04-30 11:16 2.26645 102.40646 24456 ft 453 kts 295°
2026-04-30 11:16 2.27913 102.37818 23808 ft 434 kts 295°
2026-04-30 11:17 2.29099 102.35171 23237 ft 417 kts 295°
2026-04-30 11:17 2.30279 102.32532 22688 ft 400 kts 295°
2026-04-30 11:17 2.31388 102.30042 22167 ft 386 kts 295°
2026-04-30 11:17 2.32481 102.27599 21511 ft 377 kts 295°
2026-04-30 11:18 2.33542 102.25230 20857 ft 368 kts 295°
2026-04-30 11:18 2.35622 102.20596 19756 ft 359 kts 295°
2026-04-30 11:18 2.36649 102.18308 19368 ft 356 kts 296°
2026-04-30 11:19 2.37656 102.16064 18987 ft 353 kts 295°
2026-04-30 11:19 2.38650 102.13850 18615 ft 350 kts 295°
2026-04-30 11:19 2.39651 102.11618 18233 ft 348 kts 295°
2026-04-30 11:19 2.40639 102.09416 17841 ft 346 kts 296°
2026-04-30 11:20 2.41612 102.07247 17451 ft 344 kts 296°
2026-04-30 11:20 2.42597 102.05054 17076 ft 342 kts 296°
2026-04-30 11:20 2.43564 102.02901 16706 ft 339 kts 295°
2026-04-30 11:20 2.44524 102.00761 16326 ft 337 kts 296°
2026-04-30 11:21 2.45485 101.98617 15941 ft 335 kts 296°
2026-04-30 11:21 2.46439 101.96491 15572 ft 333 kts 296°
2026-04-30 11:21 2.47376 101.94402 15179 ft 330 kts 296°
2026-04-30 11:21 2.48316 101.92304 14586 ft 326 kts 296°
2026-04-30 11:22 2.49235 101.90252 13892 ft 324 kts 296°
2026-04-30 11:22 2.50146 101.88220 13198 ft 321 kts 296°
2026-04-30 11:22 2.51057 101.86189 12589 ft 314 kts 296°
2026-04-30 11:22 2.51930 101.84241 12150 ft 302 kts 296°
2026-04-30 11:23 2.52777 101.82348 11655 ft 297 kts 296°
2026-04-30 11:23 2.53765 101.80553 11355 ft 287 kts 315°
2026-04-30 11:23 2.57179 101.79481 10795 ft 258 kts 18°
2026-04-30 11:24 2.58737 101.80293 10525 ft 249 kts 44°
2026-04-30 11:24 2.59738 101.81680 10249 ft 243 kts 69°
2026-04-30 11:24 2.60016 101.83315 9978 ft 242 kts 93°
2026-04-30 11:25 2.58863 101.86487 9387 ft 241 kts 111°
2026-04-30 11:25 2.58168 101.88012 9089 ft 240 kts 111°
2026-04-30 11:25 2.56806 101.91055 8466 ft 239 kts 110°
2026-04-30 11:26 2.54458 101.93366 7799 ft 250 kts 161°
2026-04-30 11:26 2.52717 101.93481 7469 ft 256 kts 190°
2026-04-30 11:26 2.51076 101.92748 7150 ft 259 kts 219°
2026-04-30 11:27 2.49962 101.91336 6825 ft 258 kts 249°
2026-04-30 11:27 2.49651 101.89610 6510 ft 253 kts 278°
2026-04-30 11:27 2.50087 101.88042 6219 ft 247 kts 297°
2026-04-30 11:27 2.50820 101.86503 5926 ft 246 kts 298°
2026-04-30 11:28 2.52292 101.83409 5328 ft 244 kts 297°
2026-04-30 11:28 2.53001 101.81853 5046 ft 243 kts 296°
2026-04-30 11:28 2.53850 101.80422 4744 ft 238 kts 318°
2026-04-30 11:29 2.55229 101.79524 4302 ft 232 kts 341°
2026-04-30 11:29 2.56767 101.78916 3597 ft 242 kts 338°
2026-04-30 11:29 2.59745 101.77202 2511 ft 245 kts 328°
2026-04-30 11:30 2.62454 101.75355 1966 ft 220 kts 328°
2026-04-30 11:30 2.63662 101.74540 1655 ft 199 kts 328°
2026-04-30 11:30 2.64757 101.73807 1388 ft 179 kts 328°
2026-04-30 11:31 2.65751 101.73143 1182 ft 160 kts 327°
2026-04-30 11:31 2.66650 101.72542 973 ft 150 kts 327°
2026-04-30 11:31 2.67520 101.71960 799 ft 149 kts 326°
2026-04-30 11:31 2.68393 101.71375 614 ft 149 kts 326°
2026-04-30 11:32 2.69042 101.70940 468 ft 149 kts 325°
2026-04-30 11:32 2.69911 101.70366 281 ft 147 kts 326°
2026-04-30 11:32 2.70761 101.69800 96 ft 146 kts 326°
2026-04-30 11:33 2.72190 101.68841 36 ft 79 kts 326°
2026-04-30 11:33 2.72556 101.68597 35 ft 57 kts 326°
2026-04-30 11:33 2.72825 101.68433 34 ft 38 kts 341°
2026-04-30 11:33 2.73044 101.68393 36 ft 25 kts 352°
2026-04-30 11:34 2.73214 101.68358 36 ft 23 kts 333°
2026-04-30 11:34 2.73351 101.68270 37 ft 22 kts 325°
2026-04-30 11:34 2.73476 101.68184 39 ft 20 kts 326°
2026-04-30 11:34 2.73593 101.68106 41 ft 19 kts 329°
2026-04-30 11:35 2.73701 101.68149 40 ft 19 kts 57°
2026-04-30 11:35 2.73778 101.68263 38 ft 20 kts 56°
2026-04-30 11:35 2.73856 101.68380 36 ft 19 kts 56°
2026-04-30 11:35 2.73911 101.68426 36 ft 8 kts 342°
2026-04-30 11:36 2.73933 101.68413 36 ft 8 kts 324°
2026-04-30 11:36 2.73974 101.68385 36 ft 2 kts 324°